This is the latest recevied weather packets stored in our database for station/object KI2K. If no packets are shown the sender has not sent any weather packets the latest 10 day(s).
| Time | Temp. | Humidity | Pressure | Rain* | Wind** | Luminosity | Snow |
|---|---|---|---|---|---|---|---|
| 1777939332 | 22.22° C | 56% | 1001.9 hPa | 0 mm | - | 21 W/m² | - |
| 1777939028 | 22.22° C | 56% | 1002.3 hPa | 0 mm | - | 23 W/m² | - |
| 1777938725 | 22.78° C | 56% | 1002.2 hPa | 0 mm | - | 26 W/m² | - |
| 1777938422 | 22.78° C | 55% | 1002.4 hPa | 0 mm | - | 32 W/m² | - |
| 1777938119 | 22.78° C | 54% | 1002.4 hPa | 0 mm | - | 36 W/m² | - |
| 1777937815 | 22.78° C | 54% | 1002.5 hPa | 0 mm | - | 38 W/m² | - |
| 1777937511 | 23.33° C | 53% | 1002.6 hPa | 0 mm | - | 47 W/m² | - |
| 1777937209 | 23.33° C | 54% | 1002.6 hPa | 0 mm | - | 48 W/m² | - |
| 1777936905 | 23.33° C | 53% | 1003 hPa | 0 mm | - | 55 W/m² | - |
| 1777936602 | 23.33° C | 53% | 1003 hPa | 0 mm | - | 65 W/m² | - |
| 1777936299 | 23.89° C | 52% | 1002.8 hPa | 0 mm | - | 59 W/m² | - |
| 1777935995 | 23.89° C | 50% | 1003.1 hPa | 0 mm | - | 106 W/m² | - |
| 1777935694 | 23.89° C | 50% | 1003 hPa | 0 mm | - | 141 W/m² | - |
| 1777935392 | 23.89° C | 49% | 1003 hPa | 0 mm | - | 112 W/m² | - |
| 1777935087 | 24.44° C | 50% | 1003.1 hPa | 0 mm | - | 112 W/m² | - |
| 1777934784 | 24.44° C | 49% | 1002.8 hPa | 0 mm | - | 180 W/m² | - |
| 1777934481 | 24.44° C | 49% | 1003 hPa | 0 mm | - | 203 W/m² | - |
| 1777934178 | 24.44° C | 49% | 1003.3 hPa | 0 mm | - | 198 W/m² | - |
| 1777933874 | 24.44° C | 50% | 1003.5 hPa | 0 mm | - | 198 W/m² | - |
| 1777933571 | 23.89° C | 51% | 1003.4 hPa | 0 mm | - | 164 W/m² | - |
| 1777933268 | 24.44° C | 50% | 1003.5 hPa | 0 mm | - | 165 W/m² | - |
| 1777932965 | 24.44° C | 51% | 1003.4 hPa | 0 mm | - | 162 W/m² | - |
| 1777932663 | 24.44° C | 51% | 1003.4 hPa | 0 mm | - | 301 W/m² | - |
| 1777932359 | 24.44° C | 51% | 1003.3 hPa | 0 mm | - | 340 W/m² | - |
| 1777932056 | 24.44° C | 53% | 1003.4 hPa | 0 mm | - | 164 W/m² | - |
* Rain latest hour (hover to see other rain measurements)
** Current wind speed in m/s (hover to see current wind gust speed)